Location: Banska Bystrica
(0.0000°N, 19.1500°E)
Time: 08:33:45
(UTC+01:00)

ARIANE 5 R/B - Pass Details

Date: 19 February 2019
Orbit: 288 x 34149 km, 1.5° (Epoch: 22 March)

Event Time Altitude Azimuth Distance (km) Brightness Sun altitude
Rises 18:16:59 0° 271° (W) 8,937 10.0 -4.8°
Reaches altitude 10° 18:26:36 10° 271° (W) 4,807 8.2 -7.2°
Maximum altitude 18:35:38 84° 184° (S) 618 2.1 -9.4°
Enters shadow 18:37:50 14° 95° (E) 1,248 3.0 -10.0°
